Torna al catalogo

STARLINK-31959

AttivoComunicazioniVLEO
NORAD 59925·PAYLOAD·🇺🇸 United States

Lanciato Jun 1, 2024 da Cape Canaveral Space Force Station

Loading…

Prossimi Passaggi (prossime 24 ore)

TLE

AggiornatoSource: CelesTrak SupGP

Epoca: Sep 14, 2026, 22:35 UTC

1 59925C 24106D   26257.94145833 -.00024040  00000+0 -87081-3 0  2577
2 59925  43.0038 339.8898 0001868 273.4630 310.6225 15.27586142    17

Traccia STARLINK-31959 in tempo reale con AllMySat

Download on the App Store